Weather History for Rochelle, IL

Change the Weather History Date:

Saturday, November 26, 2011

  Actual Average (KRFD) Record (KRFD)
Temperature  
Mean Temperature 46 °F 33 °F  
Max Temperature 51 °F 42 °F 67 °F (1914)
Min Temperature 41 °F 25 °F -10 °F (1977)
Degree Days  
Heating Degree Days 19 32  
Month to date heating degree days 651  
Since 1 July heating degree days 1204  
Cooling Degree Days 0 0  
Month to date cooling degree days 0  
Year to date cooling degree days 820  
Moisture  
Dew Point 45 °F    
Average Humidity 86    
Maximum Humidity 94    
Minimum Humidity 76    
Precipitation  
Precipitation 0.50 in 0.08 in 1.30 in (1934)
Month to date precipitation 2.25  
Year to date precipitation 33.93  
Snow  
Snow 0.00 in 0.10 in 4.00 in (1950)
Month to date snowfall 1.1  
Since 1 July snowfall 1.2  
Since 1 September snowfall 1.2  
Snow Depth -    
Sea Level Pressure  
Sea Level Pressure 29.82 in    
Wind  
Wind Speed 12 mph (SSW)    
Max Wind Speed 16 mph    
Max Gust Speed 23 mph    
Visibility 6 miles    
Events Rain    
T = Trace of Precipitation, MM = Missing Value Source: NWS Daily Summary

Daily Weather History Graph

Daily Weather History Graph

Search for Another Location

Airport:

Trip Planner

Search our weather history database for the weather conditions in past years. The results will help you decide how hot, cold, wet, or windy it might be!

Date:

Astronomy

Nov. 26, 2011 Rise Set
Actual Time 6:58 AM CST 4:28 PM CST
Civil Twilight 6:27 AM CST 4:58 PM CST
Nautical Twilight 5:53 AM CST 5:33 PM CST
Astronomical Twilight 5:20 AM CST 6:06 PM CST
Moon 8:30 AM CST (11/26) 5:58 PM CST (11/26)
Length of Visible Light 10h 30m
Length of Day
9h 29m
Waxing Crescent, 3% of the Moon is Illuminated
Nov 26
Waxing Crescent
Dec 2
First Quarter
Dec 10
Full
Dec 17
Last Quarter
Dec 24
New

Hourly Weather History & Observations

Time (CST) Temp. Windchill Dew Point Humidity Pressure Visibility Wind Dir Wind Speed Gust Speed Precip Events Conditions
12:15 AM 48.2 °F - 42.8 °F 82% 29.86 in 10.0 mi South 15.0 mph - N/A   Scattered Clouds
12:35 AM 50.0 °F - 42.8 °F 76% 29.85 in 10.0 mi South 15.0 mph - N/A   Mostly Cloudy
12:55 AM 50.0 °F - 42.8 °F 76% 29.85 in 10.0 mi South 15.0 mph - N/A   Mostly Cloudy
1:35 AM 50.0 °F - 42.8 °F 76% 29.85 in 10.0 mi South 12.7 mph - N/A   Mostly Cloudy
1:55 AM 50.0 °F - 42.8 °F 76% 29.85 in 10.0 mi South 15.0 mph - N/A   Overcast
2:15 AM 50.0 °F - 42.8 °F 76% 29.85 in 10.0 mi South 15.0 mph 18.4 mph N/A   Overcast
2:35 AM 50.0 °F - 42.8 °F 76% 29.85 in 10.0 mi South 11.5 mph - N/A   Overcast
2:55 AM 50.0 °F - 42.8 °F 76% 29.84 in 10.0 mi South 11.5 mph - N/A   Overcast
3:15 AM 50.0 °F - 42.8 °F 76% 29.84 in 10.0 mi South 11.5 mph - N/A   Overcast
3:35 AM 50.0 °F - 42.8 °F 76% 29.84 in 10.0 mi South 12.7 mph - N/A   Overcast
3:55 AM 50.0 °F - 42.8 °F 76% 29.84 in 10.0 mi South 13.8 mph - N/A   Overcast
4:15 AM 50.0 °F - 42.8 °F 76% 29.84 in 10.0 mi South 13.8 mph - N/A   Overcast
4:35 AM 50.0 °F - 42.8 °F 76% 29.83 in 10.0 mi South 15.0 mph 21.9 mph N/A   Overcast
4:55 AM 50.0 °F - 44.6 °F 82% 29.84 in 10.0 mi South 13.8 mph - N/A   Overcast
5:15 AM 50.0 °F - 44.6 °F 82% 29.83 in 10.0 mi South 13.8 mph - N/A   Overcast
5:35 AM 50.0 °F - 44.6 °F 82% 29.83 in 10.0 mi South 11.5 mph - N/A   Overcast
5:55 AM 50.0 °F - 44.6 °F 82% 29.83 in 10.0 mi South 11.5 mph - N/A   Overcast
6:15 AM 50.0 °F - 44.6 °F 82% 29.83 in 10.0 mi South 11.5 mph - N/A   Overcast
6:55 AM 50.0 °F - 44.6 °F 82% 29.83 in 10.0 mi South 13.8 mph - N/A   Overcast
7:15 AM 50.0 °F - 44.6 °F 82% 29.83 in 10.0 mi South 11.5 mph - N/A   Overcast
7:35 AM 50.0 °F - 44.6 °F 82% 29.85 in 10.0 mi South 13.8 mph - N/A   Overcast
7:55 AM 50.0 °F - 44.6 °F 82% 29.85 in 10.0 mi SSW 15.0 mph - N/A   Overcast
8:15 AM 50.0 °F - 44.6 °F 82% 29.85 in 4.0 mi South 12.7 mph - N/A Rain Light Rain
8:35 AM 50.0 °F - 46.4 °F 87% 29.85 in 3.0 mi South 11.5 mph - N/A   Drizzle
9:15 AM 50.0 °F - 46.4 °F 87% 29.84 in 2.5 mi South 11.5 mph - 0.01 in   Heavy Drizzle
9:35 AM 50.0 °F - 46.4 °F 87% 29.84 in 3.0 mi South 10.4 mph - 0.02 in   Light Drizzle
9:55 AM 50.0 °F - 46.4 °F 87% 29.84 in 2.5 mi South 10.4 mph - 0.03 in Rain Rain
10:15 AM 50.0 °F - 48.2 °F 94% 29.84 in 2.5 mi South 11.5 mph - N/A   Drizzle
10:35 AM 50.0 °F - 48.2 °F 94% 29.83 in 2.5 mi South 10.4 mph - N/A   Drizzle
10:55 AM 50.0 °F - 48.2 °F 94% 29.82 in 3.0 mi South 11.5 mph - 0.01 in Rain Light Rain
11:15 AM 50.0 °F - 48.2 °F 94% 29.83 in 2.0 mi South 10.4 mph - 0.02 in Rain Light Rain
11:35 AM 50.0 °F - 48.2 °F 94% 29.82 in 4.0 mi South 12.7 mph - 0.03 in Rain Rain
11:55 AM 51.8 °F - 48.2 °F 88% 29.81 in 4.0 mi South 12.7 mph - 0.03 in Rain Light Rain
12:15 PM 51.8 °F - 48.2 °F 88% 29.81 in 5.0 mi SSW 12.7 mph - N/A Rain Light Rain
12:35 PM 51.8 °F - 48.2 °F 88% 29.81 in 3.0 mi SSW 9.2 mph - 0.01 in   Drizzle
12:55 PM 51.8 °F - 50.0 °F 94% 29.81 in 3.0 mi SSW 9.2 mph - 0.01 in   Light Drizzle
1:15 PM 51.8 °F - 50.0 °F 94% 29.80 in 3.0 mi SSW 9.2 mph - N/A   Drizzle
1:55 PM 51.8 °F - 50.0 °F 94% 29.78 in 5.0 mi SSW 8.1 mph - 0.01 in Rain Light Rain
2:15 PM 51.8 °F - 50.0 °F 94% 29.77 in 7.0 mi SSW 5.8 mph - N/A Rain Rain
2:35 PM 51.8 °F - 50.0 °F 94% 29.78 in 7.0 mi SSW 6.9 mph - N/A   Drizzle
2:55 PM 51.8 °F - 50.0 °F 94% 29.78 in 4.0 mi SW 5.8 mph - 0.01 in Rain Rain
3:15 PM 51.8 °F - 50.0 °F 94% 29.79 in 3.0 mi WSW 4.6 mph - 0.01 in Rain Rain
3:35 PM 51.8 °F - 50.0 °F 94% 29.78 in 4.0 mi WSW 4.6 mph - 0.03 in Rain Rain
3:55 PM 51.8 °F - 50.0 °F 94% 29.78 in 2.5 mi West 3.5 mph - 0.06 in Rain Rain
4:15 PM 51.8 °F - 50.0 °F 94% 29.77 in 3.0 mi WNW 3.5 mph - 0.02 in Rain Rain
4:35 PM 51.8 °F - 50.0 °F 94% 29.76 in 3.0 mi NW 3.5 mph - 0.05 in Rain Rain
4:55 PM 51.8 °F - 48.2 °F 88% 29.78 in 4.0 mi WNW 5.8 mph - 0.08 in Rain Rain
5:15 PM 50.0 °F - 48.2 °F 94% 29.78 in 4.0 mi NW 5.8 mph - 0.02 in Rain Light Rain
5:35 PM 50.0 °F - 48.2 °F 94% 29.78 in 3.0 mi WNW 4.6 mph - 0.07 in Rain Rain
5:55 PM 50.0 °F - 46.4 °F 87% 29.79 in 5.0 mi WNW 16.1 mph 19.6 mph 0.10 in Rain Rain
6:15 PM 46.4 °F 40.7 °F 44.6 °F 93% 29.80 in 5.0 mi WNW 12.7 mph - 0.02 in Rain Light Rain
6:35 PM 46.4 °F 40.1 °F 42.8 °F 87% 29.81 in 5.0 mi WNW 15.0 mph - 0.05 in Rain Rain
6:55 PM 44.6 °F 37.4 °F 42.8 °F 93% 29.80 in 5.0 mi WNW 16.1 mph - 0.09 in Rain Light Rain
7:15 PM 44.6 °F 38.4 °F 42.8 °F 93% 29.81 in 7.0 mi WNW 12.7 mph - 0.01 in Rain Light Rain
7:35 PM 44.6 °F 39.2 °F 41.0 °F 87% 29.81 in 7.0 mi WNW 10.4 mph - 0.02 in Rain Light Rain
7:55 PM 44.6 °F 38.1 °F 41.0 °F 87% 29.81 in 7.0 mi NW 13.8 mph - 0.03 in Rain Light Rain
8:15 PM 42.8 °F 35.1 °F 39.2 °F 87% 29.81 in 5.0 mi NW 16.1 mph 21.9 mph 0.01 in Rain Light Rain
8:35 PM 41.0 °F 32.8 °F 37.4 °F 87% 29.82 in 5.0 mi NW 16.1 mph 23.0 mph 0.02 in Rain Light Rain
8:55 PM 41.0 °F 32.8 °F 37.4 °F 87% 29.82 in 5.0 mi NW 16.1 mph 23.0 mph 0.04 in Rain Light Rain
9:15 PM 41.0 °F 33.9 °F 37.4 °F 87% 29.82 in 7.0 mi WNW 12.7 mph 19.6 mph 0.01 in Rain Light Rain
9:35 PM 41.0 °F 35.8 °F 37.4 °F 87% 29.82 in 7.0 mi NW 8.1 mph - 0.02 in Rain Light Rain
9:55 PM 41.0 °F 33.9 °F 37.4 °F 87% 29.84 in 7.0 mi WNW 12.7 mph - 0.03 in   Drizzle
10:15 PM 41.0 °F 34.3 °F 37.4 °F 87% 29.82 in 7.0 mi WNW 11.5 mph - N/A Rain Light Rain
10:35 PM 41.0 °F 34.3 °F 37.4 °F 87% 29.83 in 7.0 mi WNW 11.5 mph - 0.01 in Rain Rain
10:55 PM 41.0 °F 34.7 °F 37.4 °F 87% 29.83 in 7.0 mi WNW 10.4 mph - 0.01 in Rain Light Rain
11:15 PM 41.0 °F 34.3 °F 37.4 °F 87% 29.83 in 10.0 mi WNW 11.5 mph - 0.01 in Rain Light Rain
11:35 PM 41.0 °F 35.2 °F 37.4 °F 87% 29.83 in 10.0 mi WNW 9.2 mph - 0.01 in   Light Drizzle
11:55 PM 41.0 °F 34.3 °F 37.4 °F 87% 29.83 in 10.0 mi WNW 11.5 mph 17.3 mph 0.02 in Rain Light Rain